SCP
0 0 0 0 0 0 0 0 0 0 0 0 0 0 0 0 0 0 0 0 0 0 0 0 0 0 0 0 0 0 0 0 0 0 0 0 0 0 0 0 0 0 0
0 0 0 0 0 0 0 0 0 0 0 0 0 0 0 0 0 0 0 0 0 0 0 0 0 0 0 0 0 0 0 0 0 0 0 0 0 0 0 0 0 0 0
0 0 0 0 0 0 0 0 0 0 0 0 0 0 0 0 0 0 0 0 0 0 0 0 0 0 0 0 0 0 0 0 0 0 0 0 0 0 0 0 0 0 0
0 0 0 0 0 0 0 0 0 0 0 0 0 0 0 0 0 0 0 0 0 0 0 0 0 0 0 0 0 0 0 0 0 0 0 0 0 0 0 0 0 0 0
0 0 0 0 0 0 0 0 0 0 0 0 0 0 0 0 0 0 0 0 0 0 0 0 0 0 0 0 0 0 0 0 0 0 0 0 0 0 0 0 0 0 0
0 0 0 0 0 0 0 0 0 0 0 0 0 0 0 0 0 0 0 0 0 0 0 0 0 0 0 0 0 0 0 0 0 0 0 0 0 0 0 0 0 0 0
0 0 0 0 0 0 0 0 0 0 0 0 0 0 0 0 0 0 0 0 0 0 0 0 0 0 0 0 0 0 0 0 0 0 0 0 0 0 0 0 0 0 0
0 0 0 0 0 0 0 0 0 0 0 0 0 0 0 0 0 0 0 0 0 0 0 0 0 0 0 0 0 0 0 0 0 0 0 0 0 0 0 0 0 0 0
0 0 0 0 0 0 0 0 0 0 0 0 0 0 0 0 0 0 0 0 0 0 0 0 0 0 0 0 0 0 0 0 0 0 0 0 0 0 0 0 0 0 0
0 0 0 0 0 0 0 0 0 0 0 0 0 0 0 0 0 0 0 0 0 0 0 0 0 0 0 0 0 0 0 0 0 0 0 0 0 0 0 0 0 0 0
0 0 0 0 0 0 0 0 0 0 0 0 0 0 0 0 0 0 0 0 0 0 0 0 0 0 0 0 0 0 0 0 0 0 0 0 0 0 0 0 0 0 0
0 0 0 0 0 0 0 0 0 0 0 0 0 0 0 0 0 0 0 0 0 0 0 0 0 0 0 0 0 0 0 0 0 0 0 0 0 0 0 0 0 0 0
0 0 0 0 0 0 0 0 0 0 0 0 0 0 0 0 0 0 0 0 0 0 0 0 0 0 0 0 0 0 0 0 0 0 0 0 0 0 0 0 0 0 0
0 0 0 0 0 0 0 0 0 0 0 0 0 0 0 0 0 0 0 0 0 0 0 0 0 0 0 0 0 0 0 0 0 0 0 0 0 0 0 0 0 0 0
0 0 0 0 0 0 0 0 0 0 0 0 0 0 0 0 0 0 0 0 0 0 0 0 0 0 0 0 0 0 0 0 0 0 0 0 0 0 0 0 0 0 0
0 0 0 0 0 0 0 0 0 0 0 0 0 0 0 0 0 0 0 0 0 0 0 0 0 0 0 0 0 0 0 0 0 0 0 0 0 0 0 0 0 0 0
0 0 0 0 0 0 0 0 0 0 0 0 0 0 0 0 0 0 0 0 0 0 0 0 0 0 0 0 0 0 0 0 0 0 0 0 0 0 0 0 0 0 0
0 0 0 0 0 0 0 0 0 0 0 0 0 0 0 0 0 0 0 0 0 0 0 0 0 0 0 0 0 0 0 0 0 0 0 0 0 0 0 0 0 0 0
0 0 0 0 0 0 0 0 0 0 0 0 0 0 0 0 0 0 0 0 0 0 0 0 0 0 0 0 0 0 0 0 0 0 0 0 0 0 0 0 0 0 0
0 0 0 0 0 0 0 0 0 0 0 0 0 0 0 0 0 0 0 0 0 0 0 0 0 0 0 0 0 0 0 0 0 0 0 0 0 0 0 0 0 0 0
0 0 0 0 0 0 0 0 0 0 0 0 0 0 0 0 0 0 0 0 0 0 0 0 0 0 0 0 0 0 0 0 0 0 0 0 0 0 0 0 0 0 0
0 0 0 0 0 0 0 0 0 0 0 0 0 0 0 0 0 0 0 0 0 0 0 0 0 0 0 0 0 0 0 0 0 0 0 0 0 0 0 0 0 0 0
0 0 0 0 0 0 0 0 0 0 0 0 0 0 0 0 0 0 0 0 0 0 0 0 0 0 0 0 0 0 0 0 0 0 0 0 0 0 0 0 0 0 0
0 0 0 0 0 0 0 0 0 0 0 0 0 0 0 0 0 0 0 0 0 0 0 0 0 0 0 0 0 0 0 0 0 0 0 0 0 0 0 0 0 0 0
0 0 0 0 0 0 0 0 0 0 0 0 0 0 0 0 0 0 0 0 0 0 0 0 0 0 0 0 0 0 0 0 0 0 0 0 0 0 0 0 0 0 0
0 0 0 0 0 0 0 0 0 0 0 0 0 0 0 0 0 0 0 0 0 0 0 0 0 0 0 0 0 0 0 0 0 0 0 0 0 0 0 0 0 0 0
Wind_Speed
2 2 2 3 3 3 3 3 2 2 2 2 2 1 1 1 1 1 1 1 1 2 2 2 2 2 2 3 3 2 2 2 1 1 1 2 2 3 2 2 2 3 4
2 3 3 3 4 4 3 3 2 2 2 2 2 2 1 1 1 1 0 1 1 2 2 2 2 2 2 2 2 2 2 1 2 2 1 1 2 2 2 2 3 4 3
5 4 3 3 3 3 4 3 3 2 2 2 1 1 1 1 1 1 1 1 1 1 1 2 2 2 2 2 3 3 4 2 2 2 3 3 3 2 2 3 3 3 3
4 4 4 3 4 4 3 2 2 2 2 2 3 3 2 2 2 1 1 1 1 1 2 2 2 2 2 2 3 3 2 3 2 2 2 2 2 2 1 1 2 3 4
5 5 5 5 4 3 2 2 2 1 1 2 3 3 2 2 1 1 1 1 1 2 2 2 2 2 2 3 3 2 3 3 3 3 2 2 1 2 2 2 2 2 3
4 4 3 3 2 2 2 2 2 1 1 1 2 3 3 2 2 2 2 2 1 1 2 2 3 3 3 3 3 3 3 3 3 3 3 3 3 3 3 3 3 3 2
5 4 4 4 3 2 2 2 2 1 1 2 2 3 3 3 4 3 3 2 2 2 3 3 3 3 4 4 3 3 4 4 4 4 3 3 3 3 3 3 2 2 2
5 5 5 5 4 3 3 2 2 2 2 2 2 2 2 2 2 3 2 3 3 4 4 4 4 4 4 4 4 3 4 4 4 5 4 3 3 3 3 3 3 2 2
4 4 4 4 4 4 3 3 3 2 2 2 2 2 2 2 3 3 3 3 3 3 4 4 4 4 4 4 4 3 4 4 5 5 5 4 3 3 3 3 4 4 3
3 3 3 3 3 3 3 2 3 3 3 2 3 2 3 3 3 2 3 3 3 3 3 3 4 4 4 4 4 4 4 4 5 4 5 4 4 3 3 4 4 4 4
3 2 2 2 1 0 1 1 1 2 2 2 3 2 2 2 2 2 3 3 3 3 3 4 4 4 4 4 4 4 5 5 5 5 5 6 5 4 4 4 4 4 4
3 2 2 1 1 1 1 1 1 1 2 2 2 2 2 2 2 3 3 3 3 3 4 3 4 4 4 4 5 5 5 5 6 6 5 6 5 5 4 4 5 5 5
2 2 1 1 1 1 0 1 1 2 2 2 2 2 3 3 3 3 3 3 3 4 4 3 4 4 4 4 5 5 5 6 6 6 6 6 6 6 5 5 5 5 5
2 2 1 0 0 1 0 1 2 1 2 2 2 3 3 3 3 3 3 3 3 3 4 4 4 4 4 5 5 5 5 5 6 6 6 7 7 7 7 6 6 5 5
2 2 1 1 1 1 1 1 2 2 1 2 2 3 3 3 2 2 3 3 3 3 3 3 3 3 3 4 5 5 5 5 5 5 6 6 7 8 7 6 5 5 5
2 2 1 1 0 1 1 2 2 2 2 2 3 3 3 3 3 3 3 3 3 3 2 3 3 4 4 4 5 4 4 4 5 5 5 5 6 7 8 9 8 8 7
3 2 2 2 2 1 1 2 2 2 2 2 3 3 3 3 3 3 3 3 3 3 3 3 3 4 5 5 5 4 3 4 4 5 4 4 4 5 5 6 7 8 9
4 3 2 2 1 1 1 1 2 2 2 2 3 3 3 3 3 3 3 3 3 3 3 3 3 3 4 5 4 4 3 3 4 4 5 5 5 5 5 5 5 5 6
4 3 2 2 1 1 1 1 1 2 2 3 3 4 3 3 4 4 4 3 3 3 3 3 3 3 4 5 4 3 2 2 4 4 4 5 5 6 5 4 5 5 5
2 2 1 1 0 1 0 0 1 2 3 4 4 3 3 3 4 4 4 3 3 3 3 3 3 3 4 5 4 3 2 2 3 3 4 5 5 5 5 4 4 5 5
2 2 2 1 1 1 0 0 2 3 4 4 3 3 3 3 4 3 3 3 3 3 3 3 3 3 4 4 4 3 2 3 3 3 3 4 5 5 5 5 5 6 5
2 2 2 1 1 1 1 1 3 4 3 3 3 4 4 4 3 3 4 3 3 3 3 3 4 3 3 3 4 4 4 3 3 3 3 4 5 5 5 4 4 5 3
3 2 2 1 1 1 1 2 4 3 3 3 4 4 4 4 4 3 4 3 2 2 3 2 3 4 3 3 4 4 4 3 3 3 5 5 4 4 3 4 4 3 2
2 2 2 1 2 2 2 3 3 2 2 3 4 4 4 5 4 3 2 3 3 3 3 3 3 4 3 3 2 2 2 3 3 2 3 3 3 3 3 3 2 2 2
1 2 2 2 3 3 3 3 2 1 2 3 4 4 4 4 4 4 3 3 4 4 4 3 3 3 4 5 4 3 3 2 2 1 1 1 1 1 2 2 2 2 2
2 1 2 2 3 3 3 3 2 1 1 3 4 3 3 4 3 4 4 4 4 5 5 5 4 4 6 6 5 5 4 4 3 2 1 2 2 3 3 2 2 2 2
Wind_Direction
207 189 180 168 157 160 158 172 175 184 161 163 171 178 215 231 251 238 224 204 191 185 180 188 188 192 198 209 200 193 201 220 185 158 293 291 250 232 224 222 221 230 232
195 193 190 173 173 177 176 180 196 190 183 185 186 182 183 213 231 234 204 204 188 180 180 166 194 205 206 210 206 192 189 212 179 167 161 279 299 266 236 225 220 229 229
195 199 191 188 181 191 199 200 206 196 186 166 126 95 69 40 18 305 257 238 212 203 185 170 183 194 193 206 210 202 193 203 207 196 178 181 223 255 258 234 228 227 226
202 197 191 191 203 210 203 201 188 177 178 157 150 155 163 199 230 234 244 263 229 214 204 199 198 192 191 205 215 202 198 184 205 211 213 203 177 187 253 270 243 236 237
203 199 196 195 198 197 189 190 175 180 168 159 164 166 179 209 234 232 233 252 256 234 224 214 211 205 206 212 219 206 203 199 201 201 193 198 206 197 199 249 261 258 240
202 199 194 178 175 164 170 171 165 205 186 175 180 183 195 203 217 240 237 251 268 269 252 228 215 216 215 216 217 211 210 212 209 209 201 188 184 194 196 222 241 255 260
194 190 190 188 184 175 184 185 176 207 208 201 212 213 211 206 214 226 224 234 248 249 243 233 221 221 219 219 215 209 214 214 211 214 215 208 207 192 189 200 230 252 272
201 203 201 194 192 189 188 181 186 229 241 233 244 242 228 227 237 234 227 228 233 238 233 229 229 230 223 221 213 214 218 214 218 220 213 213 217 205 199 193 196 236 262
212 211 206 197 192 194 197 190 198 221 241 241 244 245 234 232 242 247 242 243 243 243 237 232 231 229 223 219 210 216 223 218 221 222 217 217 222 215 214 206 198 199 235
200 203 201 201 199 199 202 194 201 217 235 236 242 252 247 241 248 252 257 258 256 253 248 240 235 233 226 217 211 219 223 219 226 222 218 221 223 219 214 212 216 211 217
191 186 187 185 194 203 216 211 228 226 238 242 249 261 259 254 250 251 257 256 259 258 251 242 235 234 233 224 218 228 226 224 230 227 220 226 219 216 216 213 213 216 212
166 160 164 152 136 158 203 230 252 259 258 251 246 252 258 259 256 258 262 257 260 257 249 242 237 235 233 226 223 231 230 228 233 234 227 231 223 221 219 215 219 220 215
123 117 124 149 186 214 210 264 272 274 287 288 273 272 268 266 264 266 268 261 258 261 252 237 237 238 232 232 233 232 232 234 237 235 231 231 223 228 226 221 223 223 222
134 125 124 158 238 267 274 277 291 285 293 301 289 284 283 276 268 268 272 266 257 254 256 248 245 243 235 235 239 238 236 238 240 237 234 232 223 225 227 226 224 220 221
127 138 165 208 246 308 322 322 313 310 306 305 295 285 291 293 290 282 282 280 276 269 262 257 255 253 243 238 237 239 237 235 241 240 236 236 233 230 226 226 220 213 217
158 154 160 181 247 287 307 325 314 314 323 298 287 291 301 299 292 285 285 285 282 280 274 266 262 263 260 262 254 245 241 237 237 242 244 240 234 235 235 232 226 218 214
169 175 193 217 239 259 269 285 293 314 323 302 296 297 299 295 289 289 296 291 285 282 283 275 268 264 269 264 256 249 239 239 237 235 240 247 245 236 237 237 237 234 226
178 187 199 224 251 269 283 293 312 314 319 319 310 303 299 294 294 295 293 290 284 277 272 269 268 267 275 272 263 257 245 246 243 240 236 239 250 243 235 237 239 239 235
183 191 196 194 215 255 261 320 328 333 333 322 316 313 308 304 303 301 295 291 291 289 278 271 264 264 276 275 266 257 249 249 256 255 249 240 243 247 236 229 237 250 256
166 170 169 143 227 273 239 65 324 329 313 304 304 304 305 298 292 290 291 292 288 282 279 281 270 264 272 278 270 251 230 247 266 273 267 255 248 249 234 224 226 241 255
172 157 143 160 238 255 117 292 299 293 289 297 308 312 307 297 286 288 290 292 294 295 291 288 290 280 272 276 273 251 215 226 249 263 270 267 255 250 238 226 226 235 243
153 145 141 219 282 263 164 277 288 288 300 310 314 312 309 306 309 304 300 297 292 293 295 297 303 296 284 277 274 256 239 232 232 254 265 264 256 250 241 233 237 236 237
169 162 156 195 293 274 201 251 282 299 315 325 317 310 312 310 307 297 296 302 293 279 282 285 290 296 297 288 276 262 256 255 241 256 262 266 261 258 249 242 238 221 213
175 162 149 195 282 288 274 255 279 301 317 314 311 313 316 314 314 304 289 285 285 279 281 283 283 289 291 289 284 266 253 256 254 263 279 280 268 257 254 253 241 224 216
188 169 189 219 254 276 286 280 279 299 312 308 309 312 309 303 306 306 290 276 261 248 247 262 266 273 285 282 275 263 252 239 234 229 265 283 284 274 264 259 245 224 206
190 207 226 235 256 268 278 282 278 264 281 300 305 305 306 307 306 308 312 297 281 287 269 253 253 258 255 273 283 277 265 254 224 188 225 244 244 250 252 250 249 235 222